Location: Conflandey
(47.7287°N, 6.0456°E)
Time: 03:26:28
(UTC+00:00)

USA 267 - Pass Details

Date: 24 October 2021
Orbit: 1101 x 1107 km, 123.0° (Epoch: 27 November)

Event Time Altitude Azimuth Distance (km) Brightness Sun altitude
Rises 17:54:30 0° 143° (SE) 3,906 5.8 -14.6°
Reaches altitude 10° 17:57:03 10° 148° (SSE) 2,951 5.2 -15.1°
Maximum altitude 18:03:23 52° 224° (SW) 1,338 4.0 -16.1°
Drops below altitude 10° 18:09:45 10° 300° (WNW) 2,963 6.4 -17.2°
Sets 18:12:20 0° 306° (NW) 3,924 7.1 -17.6°
